Regional Weather Roundup
Issued by NWS

Home | Current Version | Previous Version | Graphics & Text | Print | Product List | Glossary On
Versions: 1 2 3 4 5 6 7 8 9 10 11 12 13 14 15 16 17 18 19 20 21 22 23 24 25 26 27 28 29 30 31 32 33 34 35 36 37 38 39 40 41 42 43 44 45 46 47 48 49 50
599
ASUS45 KTFX 060910
RWRMT
MONTANA REGIONAL WEATHER ROUNDUP
NATIONAL WEATHER SERVICE GREAT FALLS MT
200 AM MST SAT FEB 06 2016

NOTE: "FAIR" INDICATES FEW OR NO CLOUDS BELOW 12000 FEET WITH NO
SIGNIFICANT WEATHER AND/OR OBSTRUCTIONS TO VISIBILITY.

MTZ001>007-043-061000-
WEST OF THE DIVIDE

CITY           SKY/WX    TMP DP  RH WIND       PRES   REMARKS
KALISPELL      CLOUDY    35  30  82 SW10      30.01F WCI  27
MISSOULA       MOCLDY    26  24  92 VRB3      30.17R
BUTTE          CLOUDY    34  19  54 E12       30.16F WCI  25
MULLAN PASS    LGT SNOW  29  26  89 SW16G32   30.02F FOG     WCI  17
ANACONDA         N/A     36  19  51 S16G26    30.12S WCI  26
DEER LODGE       N/A     36  23  60 E6        30.12S WCI  31
HAMILTON         N/A     41  21  45 S12       30.16R
LIBBY            N/A     41  34  75 SE12      30.00
PLAINS           N/A     34  29  82 N3        30.07F
$$

MTZ008-052>055-061000-
SOUTHWEST MONTANA

CITY           SKY/WX    TMP DP  RH WIND       PRES   REMARKS
BOZEMAN        CLOUDY    19  13  77 NE8       30.17F WCI   9
DILLON         CLOUDY    24  16  71 S14G22    30.22F WCI  12
ENNIS          MOCLDY    27  18  69 S26G35    30.30R WCI  11
THREE FORKS      N/A     34   2  26 SW26      30.13F WCI  21
TWIN BRIDGES     N/A     28  15  58 S15       30.19F WCI  16
$$

MTZ009-010-012-014-046-048-049-054-061000-
EAST SLOPES AND CENTRAL MONTANA

CITY           SKY/WX    TMP DP  RH WIND       PRES   REMARKS
CUT BANK       MOCLDY    44  22  41 W31G45    29.86R
GREAT FALLS    CLOUDY    44  21  40 SW26G37   29.93F
MALMSTROM AFB  CLOUDY    44  22  42 SW26G33   29.93F
HELENA         CLOUDY    28  22  78 VRB6      30.09F WCI  22
CHOTEAU          N/A     48  18  29 SW16G40   29.88F
CONRAD           N/A     44  27  51 E9        29.88F
$$

MTZ011-013-016-021-045-047-050-051-061000-
NORTH CENTRAL MONTANA

CITY           SKY/WX    TMP DP  RH WIND       PRES   REMARKS
HAVRE          CLOUDY    43  27  53 SW14G22   29.84F
LEWISTOWN      CLOUDY    40  24  53 W22       29.97F
N BAR RANCH      N/A     46  18  31 W31G41    29.91F
CHINOOK          N/A     48  21  34 SW15G25   29.84F
$$

MTZ017>020-022>027-061-062-061000-
NORTHEAST MONTANA

CITY           SKY/WX    TMP DP  RH WIND       PRES   REMARKS
GLASGOW        CLOUDY    35  26  69 SW8       29.85F WCI  29
JORDAN           N/A     37  27  67 SW12      29.90F WCI  29
SIDNEY         CLOUDY    30  23  74 SW12      29.88F WCI  21
WOLF POINT     CLOUDY    29  23  78 CALM      29.86F
PLENTYWOOD       N/A     34  25  69 S3        29.80F
POPLAR           N/A     30  27  86 SW6       29.86F WCI  24
SCOBEY           N/A     37  18  46 SW16      29.79F WCI  27
$$

MTZ028>42-056>058-061000-
SOUTHCENTRAL AND SOUTHEAST MONTANA

CITY           SKY/WX    TMP DP  RH WIND       PRES   REMARKS
BAKER          CLOUDY    34  19  54 W16       29.98F WCI  24
BILLINGS       CLOUDY    36  15  42 SW20      30.03F WCI  25
LIVINGSTON     CLOUDY    35  17  47 SW47G62   30.06F WCI  19
MILES CITY     CLOUDY    33  20  58 SE6       29.99S WCI  28
EKALAKA          N/A     33  16  50 SW9       29.98F WCI  25
FORSYTH          N/A     45  18  33 SW12      29.99F
LAUREL           N/A     35  14  42 SW10      30.03F WCI  27
ROUNDUP          N/A     40  17  39 SW17      29.90F
$$

REGIONAL REPORTS...DAKOTAS

CITY           SKY/WX    TMP DP  RH WIND       PRES   REMARKS
WILLISTON      CLOUDY    30  24  78 SW12      29.84F WCI  20
MINOT          CLOUDY    33  21  61 S10       29.82F WCI  25
DICKINSON      CLOUDY    31  22  69 W17       29.90F WCI  19
BEACH            N/A     34  23  64 SW17G23   29.95F WCI  23
CROSBY           N/A     30  28  93 SW15      29.79F WCI  19
TIOGA            N/A     28  27  93 SW12      29.86F WCI  18
WATFORD CITY     N/A     32  25  74 SW9       29.87S WCI  24
BISMARCK       CLEAR     32  22  66 SW5       29.95F
GRAND FORKS    CLOUDY    24  19  81 S8        29.97F WCI  15
FARGO          CLOUDY    21  16  81 S8        30.02F WCI  11
BUFFALO SD       N/A     29  20  69 W12       29.94F WCI  19
RAPID CITY     CLOUDY    26  16  65 S3        30.08F
$$

REGIONAL REPORTS...WYOMING/IDAHO/WASHINGTON

CITY           SKY/WX    TMP DP  RH WIND       PRES   REMARKS
GILLETTE       CLOUDY    29  15  56 SW18      30.07F WCI  16
SHERIDAN       CLOUDY    20  13  74 CALM      30.06S
BUFFALO WY     CLOUDY    38  13  35 S6        30.06F
CODY           CLOUDY    37  16  41 SW18G33   30.14F WCI  27
YELLOWSTONE LA   N/A     20  16  84 VRB5      30.33F
IDAHO FALLS    CLOUDY    20  16  84 N5        30.47R
SALMON         CLOUDY    12   9  85 SW5       30.36R
BOISE          MOCLDY    35  28  75 SE15      30.40F WCI  25
SPOKANE        MOCLDY    42  34  73 SW24G31   30.09R
$$

REGIONAL REPORTS...ALBERTA

CITY           SKY/WX    TMP DP  RH WIND       PRES   REMARKS
EDMONTON       PTCLDY    41  25  52 SW13      29.39F
CALGARY        MOCLDY    43  19  39 NW5       29.58F
LETHBRIDGE     CLEAR     46  23  39 W29G41    29.74F
MEDICINE HAT   MOCLDY    39  30  70 SW21      29.72F WCI  29
WATERTON GATE    N/A     39  27  60 SW17G28     N/A  WCI  30
CARDSTON         N/A     43  21  42 SW18G35     N/A
ONEFOUR          N/A     43  25  49 SW10        N/A
$$

REGIONAL REPORTS...SASKATCHEWAN

CITY           SKY/WX    TMP DP  RH WIND       PRES   REMARKS
SWIFT CURRENT  MOCLDY    45  27  49 W25G32    29.66F
REGINA         CLOUDY    23  21  93 S9        29.68F WCI  13
CYPRESS HILLS    N/A     39  21  48 W15G24      N/A  WCI  31
VAL MARIE        N/A     41  25  52 W14         N/A
ROCKGLEN         N/A     34  27  75 W21         N/A  WCI  22
ASSINIBOIA       N/A     34  28  80 S9          N/A  WCI  26
$$




USA.gov is the U.S. government's official web portal to all federal, state and local government web resources and services.